This is the latest recevied weather packets stored in our database for station/object KG5TTF. If no packets are shown the sender has not sent any weather packets the latest 10 day(s).
| Time | Temp. | Humidity | Pressure | Rain* | Wind** | Luminosity | Snow |
|---|---|---|---|---|---|---|---|
| 1777934236 | 17.22° C | 28% | 1012.9 hPa | 0 mm | - | 99 W/m² | - |
| 1777933931 | 17.78° C | 25% | 1012.9 hPa | 0 mm | - | 117 W/m² | - |
| 1777933629 | 17.78° C | 24% | 1013 hPa | 0 mm | - | 177 W/m² | - |
| 1777933326 | 17.22° C | 24% | 1012.7 hPa | 0 mm | - | 204 W/m² | - |
| 1777933023 | 17.78° C | 25% | 1012.7 hPa | 0 mm | - | 223 W/m² | - |
| 1777932720 | 17.22° C | 25% | 1012.7 hPa | 0 mm | - | 263 W/m² | - |
| 1777932416 | 17.78° C | 25% | 1012.7 hPa | 0 mm | - | 195 W/m² | - |
| 1777932114 | 17.78° C | 24% | 1012.5 hPa | 0 mm | - | 182 W/m² | - |
| 1777931810 | 17.78° C | 24% | 1012.6 hPa | 0 mm | - | 187 W/m² | - |
| 1777931508 | 18.33° C | 23% | 1012.6 hPa | 0 mm | - | 191 W/m² | - |
| 1777931203 | 18.33° C | 24% | 1012.6 hPa | 0 mm | - | 213 W/m² | - |
| 1777930900 | 18.33° C | 24% | 1012.7 hPa | 0 mm | - | 221 W/m² | - |
| 1777930596 | 18.89° C | 23% | 1012.7 hPa | 0 mm | - | 194 W/m² | - |
| 1777930293 | 19.44° C | 22% | 1012.7 hPa | 0 mm | - | 185 W/m² | - |
| 1777929990 | 20° C | 23% | 1012.9 hPa | 0 mm | - | 206 W/m² | - |
| 1777929687 | 19.44° C | 22% | 1012.6 hPa | 0 mm | - | 369 W/m² | - |
| 1777929384 | 18.89° C | 22% | 1012.9 hPa | 0 mm | - | 285 W/m² | - |
| 1777929080 | 19.44° C | 23% | 1013.1 hPa | 0 mm | - | 238 W/m² | - |
| 1777928778 | 20° C | 21% | 1013 hPa | 0 mm | - | 186 W/m² | - |
| 1777928474 | 20° C | 21% | 1013 hPa | 0 mm | - | 214 W/m² | - |
| 1777928172 | 20° C | 21% | 1012.9 hPa | 0 mm | - | 269 W/m² | - |
| 1777927870 | 20.56° C | 21% | 1013.1 hPa | 0 mm | - | 597 W/m² | - |
| 1777927568 | 20° C | 23% | 1013.1 hPa | 0 mm | - | 932 W/m² | - |
| 1777927266 | 19.44° C | 24% | 1013.1 hPa | 0 mm | - | 781 W/m² | - |
| 1777926965 | 19.44° C | 23% | 1013.3 hPa | 0 mm | - | 519 W/m² | - |
* Rain latest hour (hover to see other rain measurements)
** Current wind speed in m/s (hover to see current wind gust speed)